This is the latest recevied weather packets stored in our database for station/object K3HW. If no packets are shown the sender has not sent any weather packets the latest 10 day(s).
| Time | Temp. | Humidity | Pressure | Rain* | Wind** | Luminosity | Snow |
|---|---|---|---|---|---|---|---|
| 1778134696 | 10° C | 90% | 1014.3 hPa | 1.27 mm | - | 0 W/m² | - |
| 1778134394 | 10° C | 90% | 1014.4 hPa | 3.05 mm | - | 0 W/m² | - |
| 1778134092 | 10° C | 90% | 1014.6 hPa | 1.78 mm | - | 0 W/m² | - |
| 1778133788 | 10° C | 90% | 1014.4 hPa | 1.27 mm | - | 0 W/m² | - |
| 1778133485 | 10° C | 90% | 1014.4 hPa | 3.05 mm | - | 0 W/m² | - |
| 1778133180 | 10° C | 90% | 1014.7 hPa | 3.05 mm | - | 0 W/m² | - |
| 1778132876 | 10° C | 89% | 1014.1 hPa | 3.05 mm | - | 0 W/m² | - |
| 1778132573 | 10.56° C | 89% | 1014.1 hPa | 3.05 mm | - | 0 W/m² | - |
| 1778132270 | 10.56° C | 89% | 1014.5 hPa | 3.05 mm | - | 0 W/m² | - |
| 1778131968 | 10.56° C | 89% | 1014.6 hPa | 3.05 mm | - | 0 W/m² | - |
| 1778131667 | 10.56° C | 89% | 1014.2 hPa | 4.83 mm | - | 0 W/m² | - |
| 1778131363 | 10.56° C | 88% | 1014 hPa | 4.83 mm | - | 0 W/m² | - |
| 1778131061 | 10.56° C | 88% | 1013.9 hPa | 3.05 mm | - | 0 W/m² | - |
| 1778130757 | 11.11° C | 87% | 1014 hPa | 4.83 mm | - | 0 W/m² | - |
| 1778130454 | 11.11° C | 87% | 1014.6 hPa | 3.05 mm | - | 0 W/m² | - |
| 1778130151 | 11.11° C | 86% | 1013.2 hPa | 3.05 mm | - | 0 W/m² | - |
| 1778129848 | 11.11° C | 85% | 1013.9 hPa | 1.27 mm | - | 0 W/m² | - |
| 1778129544 | 11.67° C | 84% | 1013.4 hPa | 3.05 mm | - | 0 W/m² | - |
| 1778129242 | 12.22° C | 82% | 1013.1 hPa | 3.05 mm | - | 0 W/m² | - |
| 1778128938 | 12.22° C | 80% | 1013.2 hPa | 0 mm | - | 0 W/m² | - |
| 1778128634 | 12.78° C | 79% | 1013.6 hPa | 0 mm | - | 0 W/m² | - |
| 1778128331 | 12.78° C | 80% | 1013 hPa | 0 mm | - | 0 W/m² | - |
| 1778128028 | 12.78° C | 79% | 1013.2 hPa | 0 mm | - | 0 W/m² | - |
| 1778127722 | 12.78° C | 79% | 1013.3 hPa | 0 mm | - | 0 W/m² | - |
| 1778127420 | 12.78° C | 79% | 1013.2 hPa | 0 mm | - | 0 W/m² | - |
* Rain latest hour (hover to see other rain measurements)
** Current wind speed in m/s (hover to see current wind gust speed)